Wind_Speed
23 22 20 18 16 15 14 13 11 11 10 9 7 5 3 3 4 5 5 5 4 4 4 3 3 3 4 6 7 8 9 10 11 12 12 11 10 9 8 7 6 6 6 6 6 7 8 8 9 9 9 10 11 12 13 13 14 14 14 14 15 15 14 12 9 11 17 20 20 22 22 22 23 23 23 26 26 25 25 26 25 23 22 21 20
21 20 18 17 16 15 14 14 13 12 12 11 9 6 4 4 4 6 7 6 5 4 5 4 3 3 5 6 8 9 10 11 12 12 11 9 8 7 7 7 7 7 7 8 9 9 10 10 11 11 11 11 12 13 14 14 15 15 15 15 17 17 17 15 13 12 15 17 18 22 24 22 22 23 24 26 27 25 25 27 28 27 26 25 24
19 19 19 18 17 16 15 15 15 15 14 13 11 8 5 5 5 7 8 7 6 5 5 4 3 4 5 7 8 10 11 12 12 11 9 8 7 7 8 8 9 9 9 10 10 11 11 12 12 12 12 12 13 14 14 15 15 16 17 17 18 19 18 18 16 15 16 18 16 18 21 22 23 25 25 26 27 26 25 25 27 28 28 27 27
19 20 21 20 18 18 17 17 17 16 16 14 12 9 7 6 7 8 9 7 6 7 5 4 3 4 5 7 9 11 11 11 10 8 7 7 7 8 9 10 10 10 11 11 12 12 12 13 13 13 12 13 14 14 14 14 14 15 16 17 17 17 17 16 16 16 18 19 17 17 19 21 22 25 25 25 25 25 24 24 24 24 25 27 28
21 20 20 21 21 20 19 18 18 18 17 15 13 10 8 7 8 9 9 8 8 7 6 4 4 5 7 9 10 10 10 9 8 6 6 6 7 8 9 10 11 11 11 12 13 13 13 14 14 13 13 14 15 15 14 14 14 14 15 15 14 14 15 15 16 18 20 20 21 19 18 20 21 22 22 22 23 23 21 21 21 21 23 26 28
27 25 22 21 22 22 20 20 20 19 18 16 14 12 9 9 9 10 9 8 9 7 5 4 4 6 8 10 10 9 8 7 5 4 5 6 7 9 10 10 11 12 13 14 14 14 14 14 14 14 14 15 16 16 16 15 14 13 13 13 13 13 15 15 16 18 19 20 22 21 18 17 18 18 17 18 19 21 21 21 21 22 23 25 27
30 30 28 25 23 23 22 22 22 21 19 17 15 13 11 10 10 10 10 10 9 7 5 4 5 7 9 9 9 8 7 6 4 4 6 7 8 9 10 11 12 13 15 15 15 14 13 13 14 14 14 15 16 16 16 15 13 12 12 12 14 14 15 15 16 17 18 18 19 19 17 16 16 16 17 17 18 19 19 20 20 19 20 21 23
32 31 30 28 27 26 24 23 23 22 19 17 16 14 12 11 11 11 11 10 9 6 4 4 5 7 8 8 8 7 6 6 6 5 6 7 8 9 10 12 13 15 15 15 14 13 13 13 13 12 12 12 13 13 13 13 12 12 12 13 15 15 15 15 16 15 15 16 16 17 17 16 15 15 16 17 16 16 15 16 18 19 19 20 22
31 30 29 31 30 27 24 24 24 22 19 18 17 15 13 12 12 12 12 10 8 5 4 4 5 6 7 7 7 6 6 6 6 6 7 8 9 10 12 13 15 17 16 14 12 11 10 10 10 10 10 10 10 10 9 10 11 12 12 12 13 14 14 14 15 15 15 16 17 17 17 17 16 15 15 16 15 16 17 19 20 21 21 22 22
30 30 30 31 29 27 25 26 24 20 19 20 18 16 14 13 13 13 12 10 8 5 3 4 4 5 6 6 6 5 6 6 7 8 9 10 11 12 13 15 17 17 15 12 11 10 9 9 8 9 9 8 7 7 8 10 11 11 11 11 12 12 13 14 15 16 16 17 18 18 17 18 18 17 16 17 17 19 21 20 20 21 20 19 19
27 28 28 27 25 25 26 25 21 19 21 22 19 16 14 14 15 14 12 10 7 4 2 2 3 4 5 5 5 5 6 7 8 10 10 11 13 14 15 18 17 13 10 10 10 10 10 9 9 9 8 8 8 8 8 9 9 10 11 12 14 15 16 16 16 16 17 17 18 19 18 20 22 21 18 17 18 20 20 18 18 18 17 14 13
26 26 26 24 23 23 23 21 19 19 22 22 19 16 15 16 16 15 13 10 7 4 2 1 2 3 4 4 4 5 6 8 9 10 12 13 13 16 17 16 13 10 9 9 9 10 10 10 9 10 10 9 8 7 8 10 11 12 14 16 18 19 19 19 18 18 17 17 18 19 19 21 24 23 21 19 19 22 22 20 18 17 17 14 13
24 24 23 22 22 22 21 21 20 21 23 22 18 16 17 17 17 15 13 10 7 5 3 1 1 2 2 3 4 5 7 8 10 11 12 13 15 17 15 11 9 9 8 8 8 8 9 9 10 10 10 8 7 8 12 15 16 17 18 19 19 20 20 20 20 20 20 20 20 20 20 22 24 24 23 22 21 23 23 22 20 19 17 16 15
24 23 22 23 23 22 23 23 22 22 23 20 17 17 18 18 17 15 12 10 8 6 4 3 1 1 2 3 4 6 7 9 10 11 13 14 16 13 9 8 9 9 7 7 8 7 7 9 9 9 8 7 9 13 15 17 18 18 18 18 18 18 18 18 18 18 18 19 20 21 21 22 23 24 24 23 23 22 21 20 20 20 21 23 25
23 24 24 25 24 22 22 22 22 24 23 19 18 19 20 19 17 15 13 10 8 7 5 3 2 1 2 3 4 6 8 8 9 11 13 14 12 8 6 8 9 8 7 7 7 7 8 9 7 6 7 9 13 16 17 17 18 17 16 15 15 15 16 16 15 15 16 18 21 24 25 25 26 28 29 29 29 29 27 27 27 27 27 28 30
23 24 25 25 24 23 21 21 24 25 22 19 19 20 20 19 17 15 13 11 9 8 6 4 2 2 3 3 5 6 6 7 8 11 13 11 7 5 6 8 8 7 7 6 6 7 8 8 7 8 11 13 14 16 16 17 17 16 14 13 13 14 15 15 15 16 17 19 22 24 25 26 27 30 32 34 34 34 32 32 32 29 24 21 21
22 24 24 24 23 22 22 23 24 22 19 18 20 21 21 20 17 15 14 12 11 10 7 5 3 3 3 4 5 5 5 6 8 11 11 7 5 5 6 8 8 7 6 6 5 6 8 7 7 10 13 13 14 15 16 17 16 14 12 13 14 15 15 15 18 19 18 17 19 20 21 22 22 22 25 28 31 31 29 27 26 24 18 14 13
21 23 24 23 22 21 22 23 22 20 18 20 22 23 23 20 18 16 15 13 12 11 8 6 4 3 4 4 4 4 5 6 8 9 8 5 3 4 7 8 8 7 5 5 6 7 7 6 7 11 13 13 14 14 14 15 16 13 12 14 15 15 15 17 19 20 18 18 19 21 22 21 20 19 19 19 21 23 24 25 23 21 18 14 13
21 22 23 23 22 21 20 20 20 21 22 24 24 25 23 20 18 16 15 14 12 11 9 7 4 4 4 5 4 4 4 5 7 8 5 3 2 3 6 8 8 6 5 6 8 8 8 7 8 10 13 13 13 13 13 15 15 12 12 13 14 15 17 19 19 20 19 19 19 20 21 21 20 19 18 19 19 19 21 24 23 21 19 17 17
21 22 22 23 22 21 22 24 27 27 26 25 26 26 23 20 18 17 16 15 13 11 9 6 5 5 5 5 4 4 4 5 6 6 4 2 2 3 5 7 7 5 5 7 9 10 10 9 8 10 13 13 13 13 13 14 14 12 13 14 14 16 19 19 18 18 18 19 18 18 18 19 20 20 19 20 19 18 18 19 20 22 23 21 22
20 20 21 23 23 24 26 29 30 28 26 26 27 26 23 20 19 18 18 16 14 13 10 7 5 6 6 5 5 4 4 4 5 5 3 3 3 4 5 7 7 6 6 7 8 9 11 11 9 11 13 13 13 13 12 12 12 12 13 14 14 16 17 17 17 17 16 17 17 17 16 17 18 20 21 21 20 19 19 19 17 18 19 20 21
20 21 22 24 26 27 29 28 26 24 25 27 28 26 23 20 19 19 18 17 16 14 10 8 7 6 6 6 5 5 4 4 4 3 3 3 4 5 6 6 7 7 6 7 8 9 11 11 10 12 13 13 12 12 11 11 11 11 12 13 13 14 15 14 14 15 15 15 16 16 16 17 18 20 20 21 23 23 22 20 19 17 15 14 15
19 21 23 26 28 30 30 30 27 25 26 28 28 26 23 21 21 20 19 18 17 14 11 9 8 7 7 7 6 6 5 5 4 3 3 3 4 5 6 6 7 7 7 7 8 9 11 11 11 12 12 12 11 10 10 10 11 11 12 13 13 14 15 15 14 14 14 14 15 15 15 17 18 19 20 22 24 24 21 19 19 18 16 14 13
17 21 24 27 29 30 30 30 28 26 26 28 28 26 24 23 23 22 20 19 17 14 12 10 9 8 8 8 8 7 7 6 5 3 3 3 4 5 6 6 6 6 7 7 8 10 11 12 12 12 11 11 9 8 8 9 10 11 11 13 14 14 16 17 15 13 13 14 15 15 16 17 18 20 21 22 22 20 18 18 18 16 12 8 8
17 20 24 27 29 28 27 26 25 24 25 28 28 27 26 26 25 23 22 20 18 15 13 11 10 8 9 9 9 8 8 7 6 5 4 3 4 4 5 5 5 5 6 7 9 11 11 11 11 10 9 9 8 7 8 8 9 10 11 12 14 15 16 18 16 13 13 14 15 16 17 19 19 20 21 21 20 19 17 16 15 13 7 4 2
17 19 23 27 28 25 22 22 23 25 27 29 29 28 28 27 26 24 23 21 19 16 14 12 11 10 10 10 9 9 9 9 8 7 6 4 4 4 4 4 5 5 6 7 9 10 11 10 10 9 8 7 7 7 8 9 9 10 11 12 14 16 17 17 16 14 13 13 14 16 19 21 21 20 20 20 20 20 18 14 13 9 2 4 7
17 19 21 25 27 25 24 25 28 30 31 30 30 29 29 28 26 25 24 23 21 18 16 14 13 11 10 10 9 10 10 10 10 9 8 6 5 5 4 4 5 5 6 7 8 9 10 9 9 8 6 5 5 6 8 9 10 11 12 13 14 16 17 16 15 15 15 15 15 17 19 20 20 21 22 22 22 22 19 16 14 9 1 6 12
17 19 20 22 24 26 29 31 32 32 32 32 31 31 30 28 27 26 24 22 21 20 18 17 15 13 10 9 9 11 12 12 12 11 10 8 6 6 5 5 6 6 7 8 8 8 9 8 8 7 5 4 5 6 8 10 12 13 13 14 15 15 16 16 16 17 18 18 18 19 20 20 20 22 23 23 23 23 21 19 18 12 5 7 11
18 19 20 22 25 27 29 31 32 32 31 32 32 32 31 29 28 26 23 20 19 18 18 18 16 13 9 8 9 11 12 12 12 11 11 10 8 6 6 5 6 7 8 9 8 8 8 8 7 6 6 6 7 9 11 13 14 14 14 15 16 16 17 18 19 20 20 20 20 20 21 21 22 23 24 24 24 24 23 22 20 17 14 13 13
19 19 20 22 25 27 27 29 30 30 31 31 30 29 28 28 27 25 22 20 19 18 16 15 13 12 9 8 8 9 9 10 10 12 12 10 8 7 6 5 6 8 9 9 8 7 7 6 6 6 7 8 9 11 12 14 15 15 15 15 16 17 18 18 19 20 20 20 20 21 21 21 22 23 23 23 23 24 24 23 22 21 19 17 16
19 20 20 22 25 27 28 29 29 30 31 31 31 28 26 25 25 25 23 21 21 20 18 15 13 12 10 7 7 7 8 9 10 12 11 9 8 6 5 5 6 7 8 8 7 6 6 5 5 6 6 7 8 9 11 12 13 15 15 15 16 17 18 18 19 19 19 19 20 21 21 21 21 22 22 22 23 23 24 24 24 23 21 19 17
20 20 21 22 24 26 28 28 29 30 30 29 29 28 26 23 21 21 22 21 20 19 19 18 15 13 10 8 7 7 8 9 11 11 10 8 7 6 5 5 5 6 6 6 5 5 4 4 4 5 6 6 7 8 9 11 12 13 14 15 16 16 17 18 18 17 18 19 20 20 20 20 20 20 21 21 22 22 23 24 24 23 22 21 20
21 20 19 19 20 23 25 26 29 31 31 30 30 29 27 25 22 20 19 18 18 19 20 19 17 14 12 10 8 7 7 9 10 11 9 7 6 6 5 5 5 5 6 5 4 4 3 3 4 5 6 6 7 7 8 9 11 11 12 14 14 15 16 16 15 15 16 17 18 19 19 19 19 19 20 21 21 21 22 23 23 22 22 21 20
21 18 17 16 17 19 21 25 29 31 32 32 31 30 30 29 26 23 20 17 17 20 21 21 19 17 15 12 10 9 9 9 10 10 8 7 6 6 6 6 6 6 5 5 4 4 4 3 4 5 5 6 7 7 7 8 9 10 11 11 12 13 13 14 14 15 15 16 16 17 18 18 18 19 20 20 21 22 23 22 22 22 21 19 19
20 18 16 15 17 19 22 26 28 29 29 30 31 31 31 30 27 25 24 23 22 24 24 24 23 21 18 15 12 11 11 11 11 10 8 7 7 7 8 8 7 7 7 6 6 5 5 5 5 5 6 6 7 8 7 7 8 9 10 11 12 12 13 13 14 14 14 15 16 16 16 17 17 17 18 19 21 22 22 22 21 20 20 19 19
18 18 16 15 17 20 23 26 28 28 29 31 31 31 31 29 27 27 26 26 26 26 27 26 25 22 19 17 15 13 13 13 12 11 10 8 8 9 10 10 10 9 9 9 8 7 6 6 6 6 6 7 8 9 8 6 6 7 8 9 11 12 12 12 13 12 13 14 15 15 15 16 16 16 16 17 19 19 19 20 20 19 19 20 20
17 17 17 17 18 19 22 25 27 27 27 29 31 30 29 28 28 27 26 26 26 26 24 24 23 22 21 20 19 17 16 15 14 13 12 10 10 11 12 12 12 11 11 10 10 9 8 7 7 7 7 7 8 9 7 4 4 5 6 8 10 11 10 11 11 11 12 13 14 14 14 14 14 15 15 16 17 17 17 18 19 19 19 20 20
17 17 18 18 19 20 22 24 26 26 25 25 26 28 28 28 27 27 26 26 26 25 23 22 23 24 24 24 23 21 19 18 17 17 16 15 14 14 14 14 14 13 12 11 11 10 9 8 7 7 8 8 8 8 5 2 3 4 5 6 8 9 8 8 9 10 11 12 13 13 13 12 12 13 13 14 15 16 16 17 18 19 20 21 21
17 17 18 18 19 21 23 25 26 27 26 25 25 26 27 27 26 26 26 25 25 25 24 23 23 25 25 25 24 24 23 22 22 22 21 20 19 18 16 15 15 14 13 12 11 11 10 9 8 8 7 8 8 6 3 1 2 3 4 5 7 8 7 7 9 10 10 11 12 12 11 11 11 11 12 12 13 13 15 16 17 18 19 19 19
18 18 18 17 19 21 23 25 26 26 26 25 25 25 26 27 27 27 27 26 25 25 25 24 25 26 25 24 25 26 27 27 27 26 24 23 22 20 19 17 16 15 14 13 12 12 11 9 8 8 7 8 8 5 2 1 1 2 3 5 6 7 7 7 8 10 10 10 11 11 10 10 10 10 10 11 11 12 13 14 15 16 17 17 17
17 18 18 17 17 19 20 22 23 23 23 23 24 25 27 28 28 28 27 27 26 26 26 26 27 27 26 25 24 25 27 28 27 26 24 23 23 22 20 19 17 15 14 13 12 12 11 10 9 8 7 7 7 4 2 1 1 2 3 4 5 6 5 6 7 9 9 9 9 9 9 9 9 9 10 10 11 11 12 13 14 15 16 16 17
17 18 17 16 16 17 18 20 21 21 21 21 22 24 26 27 27 27 27 27 27 26 27 27 27 26 26 25 25 24 26 26 25 24 24 23 22 22 21 19 17 15 14 12 11 11 11 10 9 8 7 7 6 4 3 2 1 1 2 3 4 4 4 5 6 8 9 9 8 8 8 8 8 9 9 10 10 10 11 13 14 14 15 16 17
15 16 16 16 15 16 18 19 19 19 19 19 20 21 22 23 23 24 26 26 26 26 26 27 26 26 26 25 24 24 25 26 26 25 23 22 21 21 20 19 17 15 13 12 11 10 10 10 9 8 7 6 5 4 4 3 2 1 1 2 3 3 2 3 5 7 7 8 8 8 7 7 7 8 9 9 9 10 11 12 13 14 15 15 16
14 14 15 15 14 14 16 17 17 17 17 17 17 17 18 19 20 21 22 23 24 24 24 24 24 24 24 24 24 24 26 27 27 26 24 23 21 20 19 18 17 15 14 12 11 11 11 10 9 8 7 6 5 5 5 4 2 2 1 1 1 1 1 2 4 6 6 7 7 7 7 7 6 7 8 8 8 9 11 12 13 14 14 14 15
13 13 14 14 13 13 14 14 14 15 15 14 14 14 16 18 19 19 19 21 22 23 22 22 21 21 22 23 24 25 26 27 27 27 26 24 22 20 18 17 17 16 14 13 12 12 11 10 9 8 7 6 6 6 6 5 4 2 2 1 1 0 1 1 2 4 5 6 6 7 7 7 6 6 7 8 8 8 10 11 12 13 14 15 15
13 12 13 13 13 13 13 13 14 16 16 15 15 15 17 18 18 19 19 21 22 22 21 21 20 20 21 22 24 25 27 27 27 27 26 25 22 20 18 17 17 16 14 13 12 12 11 10 9 8 7 6 6 7 8 7 5 4 3 2 1 2 3 2 1 3 4 4 5 6 6 6 6 5 5 6 7 8 10 12 12 13 15 16 16
14 12 12 12 12 13 13 13 14 15 16 16 17 17 17 18 19 19 20 22 22 23 22 21 21 20 20 21 23 25 27 27 27 27 26 25 22 20 18 18 18 16 14 13 13 12 11 11 10 9 8 7 7 8 9 9 7 5 4 3 2 3 4 4 2 2 2 2 3 4 5 6 5 4 4 5 7 8 10 12 13 14 16 17 17
13 11 11 12 12 12 13 13 14 14 16 17 17 17 19 20 21 22 23 24 25 25 25 25 24 23 23 22 22 24 26 27 27 26 25 24 21 19 18 19 18 17 15 14 14 13 12 12 11 10 9 8 7 8 10 10 9 7 5 4 3 3 5 5 3 1 1 0 0 2 3 5 5 4 3 5 7 9 10 12 14 15 16 18 18
12 10 10 10 11 11 11 12 13 14 15 16 16 18 20 21 21 22 24 25 26 27 28 27 27 26 25 23 21 22 24 27 27 26 25 24 21 19 19 20 19 17 16 15 14 13 13 13 12 11 10 9 7 8 10 11 10 8 6 5 4 4 5 5 5 2 0 0 1 1 1 3 4 3 4 5 7 8 10 11 13 14 15 17 17
11 10 9 9 9 10 10 11 12 13 14 15 16 18 19 20 21 23 24 25 26 27 28 28 29 28 27 25 22 20 22 25 27 27 26 23 21 20 20 21 20 18 17 16 15 13 13 13 13 12 11 10 8 8 10 11 11 9 8 6 6 5 5 5 5 4 1 1 3 3 1 1 3 4 5 6 7 8 9 10 11 12 14 16 16
11 10 9 9 9 9 10 11 11 12 12 13 15 17 18 19 20 22 24 25 26 27 28 29 29 29 28 25 22 20 20 23 26 27 27 24 22 21 21 22 21 20 18 17 16 14 14 14 14 13 13 12 10 9 10 12 12 11 9 7 7 6 5 4 5 4 2 2 4 4 2 1 2 4 6 6 7 8 9 10 10 11 13 13 14
Wind_Direction
203 204 201 199 197 198 202 205 205 204 206 209 208 209 218 223 224 223 224 231 234 234 240 250 267 289 305 315 324 328 331 334 336 337 336 334 331 325 320 318 318 321 318 313 313 309 304 303 304 306 307 303 301 300 300 300 301 301 300 299 297 297 301 295 282 287 291 288 289 292 296 302 303 302 302 301 300 299 298 296 297 303 308 309 309
206 209 211 208 207 210 211 213 214 213 213 214 214 217 225 233 230 226 229 233 232 233 235 239 260 284 304 318 324 327 331 334 335 335 335 334 332 330 332 334 334 335 332 329 328 325 321 317 314 313 310 306 303 301 300 299 298 297 294 294 293 292 293 290 282 282 288 287 287 290 293 295 296 297 299 301 302 301 299 295 294 297 301 302 303
213 215 220 219 217 219 221 221 222 220 218 218 217 218 224 233 232 228 230 231 228 228 231 241 264 291 313 324 327 329 331 333 333 334 337 341 344 344 346 348 347 346 343 339 334 330 326 321 318 317 313 309 305 301 301 300 298 295 292 292 292 291 292 290 283 280 286 289 288 289 291 291 290 291 294 296 298 299 297 295 294 294 295 296 298
221 219 222 224 225 227 228 229 230 227 224 222 220 219 223 232 232 229 230 228 224 225 229 245 275 304 323 330 332 332 333 334 335 338 345 350 349 349 350 349 348 346 342 339 336 332 328 322 320 319 315 310 307 305 305 302 298 294 293 293 292 292 292 289 282 282 288 290 289 288 288 288 287 288 291 292 293 294 293 292 291 289 288 290 293
224 226 226 227 230 233 234 235 236 233 230 227 223 220 223 233 234 229 228 224 222 224 230 250 288 317 329 334 336 337 339 340 341 344 348 347 344 343 342 340 339 338 336 334 332 328 324 320 318 318 314 310 308 307 307 306 305 302 298 296 295 293 292 287 283 284 285 287 289 289 287 286 286 286 287 289 291 292 291 288 285 284 285 288 290
218 223 228 231 233 235 236 240 241 238 234 230 225 221 224 233 231 226 225 224 221 220 229 259 298 321 330 335 339 343 347 347 346 338 331 335 337 334 334 333 332 331 330 329 328 325 321 318 317 317 314 311 309 310 311 311 310 306 299 295 294 291 288 285 283 281 280 283 289 290 289 287 287 288 288 288 289 291 292 290 286 282 282 284 287
216 219 223 229 236 238 237 241 244 243 238 231 225 221 225 230 227 222 221 219 216 216 230 269 306 322 330 337 344 350 350 344 338 330 323 328 330 328 330 331 330 330 330 330 330 328 324 319 315 314 312 310 311 314 315 312 308 303 298 295 296 294 290 289 288 280 273 276 284 287 287 287 288 290 293 294 291 289 290 290 289 286 283 282 283
214 216 217 222 232 238 238 241 245 246 238 227 221 221 225 226 221 216 214 212 211 217 237 280 311 324 333 342 349 351 348 343 344 337 324 322 325 328 331 331 332 333 334 335 333 329 324 319 316 313 311 311 312 311 310 308 306 303 300 298 298 298 298 298 297 291 282 281 287 290 289 290 289 290 296 298 295 292 290 290 292 292 290 286 283
211 213 213 216 224 231 234 239 244 245 235 221 218 222 224 220 211 208 208 207 208 219 247 293 315 328 337 345 349 349 346 344 340 331 323 324 329 331 333 335 336 336 336 336 335 332 330 328 325 321 316 313 311 308 306 304 305 308 308 305 302 303 303 302 300 299 296 292 292 293 292 291 292 293 296 296 295 296 297 293 290 290 292 290 287
208 209 210 212 219 224 228 233 239 240 231 220 218 221 219 210 204 203 203 203 205 220 254 301 322 334 340 346 347 342 339 332 321 319 324 327 329 332 334 335 335 335 337 342 347 350 351 348 345 337 330 330 329 320 308 301 300 305 309 309 310 312 311 306 301 298 296 291 291 292 292 291 291 292 292 291 292 296 297 294 292 293 294 291 288
207 208 208 209 213 220 224 227 234 237 229 220 218 218 211 203 200 200 198 198 203 217 250 306 332 337 340 344 339 330 327 317 311 317 323 325 328 332 333 333 335 342 351 359 0 2 6 12 16 13 6 1 350 330 318 316 314 311 308 306 307 309 308 303 298 294 291 288 287 288 287 287 289 290 290 290 293 294 293 296 302 305 305 302 301
210 212 211 208 210 218 223 227 235 236 225 218 216 212 205 199 197 196 195 195 199 203 214 284 330 333 334 335 329 324 319 313 313 319 323 326 330 330 331 335 346 1 9 11 10 12 19 26 26 25 19 5 350 340 335 332 326 317 311 307 304 303 302 298 294 290 286 285 284 283 281 283 286 286 285 287 290 289 291 298 304 306 307 308 309
214 214 212 209 209 215 223 230 237 233 221 216 213 207 200 197 195 194 193 192 192 190 187 199 273 315 327 323 318 317 315 315 320 324 325 328 330 330 336 350 5 10 13 20 20 22 28 25 15 18 22 9 346 337 331 326 322 319 317 315 311 308 304 298 292 287 283 281 279 277 276 277 280 281 281 285 287 284 286 292 298 301 302 300 301
214 213 212 213 215 215 220 228 233 226 215 211 209 204 200 197 194 193 192 190 189 186 185 190 207 286 303 299 307 315 318 321 325 326 327 331 332 336 353 12 11 12 21 27 28 30 30 21 11 15 19 357 336 333 332 330 330 329 327 323 317 313 310 304 299 294 288 282 279 279 278 276 276 278 279 282 286 287 289 291 293 296 297 297 299
215 216 214 215 218 219 221 225 225 216 209 207 208 204 200 196 193 192 192 193 191 187 187 193 200 253 276 282 299 313 320 323 326 328 332 336 340 350 16 16 11 21 30 30 32 34 29 23 19 13 357 343 339 340 338 336 336 335 330 323 317 314 312 310 306 300 294 288 285 286 286 283 280 279 277 276 278 282 285 286 288 292 293 294 296
215 217 215 215 217 219 218 218 215 208 202 203 206 204 199 197 195 194 194 193 191 191 193 198 212 246 255 270 294 308 318 321 325 332 338 345 353 10 19 12 12 23 30 31 34 34 30 24 10 352 345 343 343 342 339 338 341 341 331 323 321 316 312 312 310 307 302 296 291 290 290 288 285 280 277 276 277 279 281 282 283 286 286 283 285
215 217 218 217 217 218 216 213 206 197 196 206 209 205 202 200 198 198 198 196 194 196 198 200 215 249 254 263 286 302 312 318 327 336 345 358 13 14 10 6 7 14 25 30 27 26 29 21 352 339 343 347 345 340 338 341 345 344 333 327 326 320 316 318 320 322 322 315 306 303 302 301 297 289 282 277 276 278 278 275 274 274 272 272 277
222 221 219 218 220 217 210 201 193 190 205 220 218 210 205 202 200 201 202 200 196 196 198 202 214 243 254 262 280 298 306 317 332 343 354 12 20 5 0 358 358 4 17 26 19 16 19 10 342 337 346 350 344 340 341 345 348 348 338 331 327 321 321 323 321 324 327 322 315 315 316 315 312 308 300 291 286 282 274 266 264 263 261 261 267
229 226 223 221 216 207 197 192 194 206 220 225 220 213 207 202 202 203 203 201 199 197 199 205 221 243 255 265 279 293 303 321 338 348 360 19 17 356 352 349 350 355 5 13 13 10 7 356 336 337 347 349 344 344 347 349 351 351 342 335 328 323 325 326 322 322 322 319 317 318 319 320 318 313 308 305 303 296 280 268 260 253 252 256 262
236 229 226 221 208 200 204 209 212 219 225 224 218 213 207 202 201 201 199 198 200 202 204 212 232 246 254 264 274 283 296 321 340 347 355 2 350 340 337 335 339 349 358 5 7 3 357 350 340 339 346 348 347 348 349 350 353 353 349 344 333 325 327 328 325 325 323 320 320 319 318 322 323 320 318 313 307 302 294 282 264 248 243 246 252
241 230 226 221 210 207 212 212 213 221 227 223 217 211 205 203 202 199 197 198 201 204 207 216 234 245 253 261 266 273 288 313 330 339 342 331 315 316 320 323 331 342 349 356 357 352 348 347 343 340 343 346 347 345 345 349 352 351 350 346 334 330 334 332 328 329 328 324 326 326 324 325 325 325 327 325 318 313 308 303 290 267 253 249 252
245 234 226 221 216 213 210 207 213 227 228 219 214 208 204 204 204 200 198 199 202 205 208 216 229 240 250 257 259 261 269 288 309 320 326 317 305 306 311 319 329 333 333 338 342 341 342 343 340 338 340 342 342 341 340 344 348 349 349 345 339 342 348 344 335 334 333 330 330 331 330 330 329 329 329 327 326 325 318 310 305 296 286 280 274
250 237 228 222 218 215 210 207 216 227 225 216 212 208 203 202 203 201 200 200 202 206 210 215 225 237 247 252 252 250 252 261 276 292 310 311 306 304 307 315 326 327 319 320 327 332 336 338 337 335 335 335 336 337 339 343 350 351 349 348 348 351 358 0 353 344 340 338 336 335 335 336 332 330 330 328 329 331 325 314 306 301 300 297 285
256 238 228 222 219 218 215 212 214 220 219 214 211 207 203 203 203 201 201 202 205 208 212 217 226 237 248 252 249 243 241 245 252 262 288 308 311 309 307 314 323 321 309 306 315 324 329 332 333 332 331 332 334 338 343 351 356 355 352 355 357 358 4 10 6 354 347 346 343 338 338 338 334 331 332 333 335 336 331 319 309 302 297 292 283
264 245 232 225 223 223 220 216 213 214 215 213 209 206 204 203 202 201 202 206 209 212 214 220 230 242 251 254 250 243 238 238 240 247 263 290 311 315 313 317 323 318 302 298 308 316 321 325 328 328 329 331 334 340 351 360 2 358 357 1 4 7 13 14 11 3 353 348 346 341 337 338 338 338 341 345 349 350 344 330 317 307 285 241 228
277 261 247 239 234 228 222 219 214 211 213 212 209 208 208 206 204 203 204 207 212 215 217 223 231 242 252 257 253 244 238 236 237 240 250 267 289 306 315 324 327 319 303 299 303 308 312 317 323 327 329 335 344 355 3 5 4 3 5 8 11 16 19 17 11 5 356 349 347 344 342 344 348 351 358 3 2 2 2 353 341 331 296 141 106
283 272 261 251 240 228 223 223 216 209 208 208 206 208 211 210 208 205 205 208 212 215 218 224 229 237 249 257 253 245 241 239 235 235 244 257 270 286 303 323 336 330 316 309 308 307 308 313 321 324 327 337 355 10 15 12 9 10 13 15 16 18 21 19 14 10 6 1 357 354 352 354 357 359 5 9 9 11 15 14 7 0 28 109 86
284 275 265 254 240 228 224 221 213 204 202 203 204 207 209 210 210 209 208 210 213 215 219 224 229 236 247 253 249 243 242 241 237 235 241 250 263 278 291 313 338 346 339 330 322 315 310 308 310 315 321 338 357 11 19 20 21 20 18 18 19 18 18 19 18 17 15 10 6 3 2 3 4 4 9 13 14 17 23 26 24 23 46 87 78
286 276 266 252 239 231 224 218 210 203 201 201 204 207 210 211 213 213 214 217 220 222 226 230 232 236 244 249 246 243 245 245 240 235 239 247 260 273 281 300 332 348 347 339 329 319 311 308 316 333 351 4 11 15 17 18 20 21 21 20 19 18 18 18 17 17 16 13 10 9 7 7 8 10 12 14 15 21 28 32 32 34 49 66 67
286 275 264 250 238 229 221 215 210 204 200 199 200 205 209 212 214 215 216 220 224 227 231 234 234 233 237 246 248 247 250 248 236 231 237 248 262 271 274 292 327 344 345 338 329 322 317 323 343 1 9 14 18 20 19 16 15 17 20 21 20 19 19 19 17 16 15 14 14 14 11 10 11 13 12 11 14 22 32 37 39 40 44 51 54
285 274 263 250 238 226 216 210 205 201 199 198 199 200 204 208 213 217 219 222 226 227 226 228 230 229 232 240 241 241 243 237 228 230 237 247 261 268 268 286 320 338 339 334 329 323 322 335 356 6 11 14 16 17 17 15 13 13 16 19 21 19 18 19 18 16 15 15 16 17 16 14 14 15 14 13 16 23 32 39 43 44 44 47 50
288 277 267 255 240 226 214 205 199 196 197 197 199 200 199 201 208 215 220 222 223 222 220 223 226 226 227 232 232 232 233 227 224 228 235 244 254 255 254 277 306 323 329 331 328 321 321 338 353 359 4 6 7 9 10 10 12 12 13 16 19 20 19 19 18 17 17 17 17 17 17 16 17 20 21 21 22 25 31 37 41 43 45 48 49
294 283 274 263 244 227 213 203 198 197 196 196 198 199 198 200 204 208 211 215 216 213 214 219 222 222 224 227 227 226 226 222 222 227 233 240 240 234 240 265 289 305 317 325 324 313 313 327 339 348 353 353 354 357 358 1 6 10 12 14 16 17 17 16 17 19 20 20 20 20 19 18 20 24 27 29 29 29 31 36 40 44 46 46 46
302 289 277 262 242 226 217 209 204 201 199 197 199 200 202 206 207 203 197 197 201 206 211 215 217 219 222 222 219 217 216 218 222 228 233 234 228 227 240 257 273 289 301 307 305 299 301 310 326 339 344 343 345 347 346 351 359 4 8 11 13 15 15 15 18 22 22 22 23 24 24 24 25 28 30 32 34 35 36 38 42 46 48 48 49
304 293 278 254 232 223 222 217 209 204 201 201 202 204 205 208 208 204 200 197 198 204 210 214 215 218 219 218 217 215 213 215 221 226 231 230 224 226 235 244 257 272 281 286 289 291 294 300 312 328 334 336 342 341 337 342 351 356 1 7 10 12 14 15 20 24 24 26 27 26 26 28 30 33 36 37 38 39 38 40 45 50 54 57 58
301 292 278 255 233 224 221 217 211 208 208 209 210 210 209 209 208 208 207 207 207 210 213 214 215 215 215 216 216 215 213 214 217 221 227 231 229 229 235 242 254 266 273 279 282 285 290 296 303 316 324 328 334 336 333 338 346 351 357 2 6 11 15 17 21 23 25 29 30 29 30 31 32 35 41 45 46 46 44 46 51 56 60 65 67
296 289 277 263 246 229 219 216 216 216 217 217 214 212 210 211 211 210 209 210 211 214 215 215 212 210 212 215 216 214 211 211 213 216 222 226 231 236 242 248 256 265 272 277 278 280 286 292 296 308 316 319 324 329 330 333 342 346 351 357 2 8 15 19 22 25 28 32 33 32 34 35 35 37 42 46 50 53 54 57 60 62 66 70 73
293 287 280 271 256 237 224 220 221 222 224 223 218 213 211 211 211 210 211 212 214 215 215 214 210 210 215 219 217 213 209 207 210 215 218 221 228 238 244 248 253 260 268 275 275 275 280 285 291 300 308 313 319 324 327 334 342 344 348 354 360 6 14 22 26 29 32 33 33 35 36 38 40 43 45 49 54 57 61 65 67 68 69 71 72
295 289 282 273 259 244 232 226 224 224 224 224 221 218 214 210 209 210 212 213 215 216 215 214 213 216 221 222 216 209 206 207 212 218 220 223 229 237 243 246 249 254 262 268 268 269 272 277 284 290 297 307 317 319 316 324 340 341 346 353 359 6 17 29 31 33 35 34 33 35 37 40 46 49 50 56 61 65 69 74 75 76 76 74 75
301 296 288 276 262 249 237 230 226 224 222 221 221 220 216 212 211 212 212 213 215 217 216 216 218 222 225 223 216 210 208 211 218 223 226 227 231 235 238 242 245 249 256 261 262 264 267 269 275 282 288 302 312 310 282 284 335 337 345 355 1 9 25 37 35 34 35 33 30 32 36 43 50 54 55 61 68 74 80 84 86 87 88 87 87
307 303 295 284 269 253 239 229 226 226 225 224 223 222 221 218 216 215 214 214 217 219 219 221 226 228 227 223 220 217 216 218 223 228 231 233 235 236 238 241 244 247 253 257 258 259 261 263 267 272 279 294 302 290 247 245 322 330 342 356 3 11 28 41 38 35 37 34 29 30 34 42 51 56 60 68 76 82 89 94 96 97 98 97 97
310 305 301 293 277 257 241 232 228 227 228 228 227 225 225 224 220 217 217 218 219 220 221 225 230 231 227 223 223 222 222 223 227 230 233 236 238 239 240 242 243 246 252 257 256 254 256 258 261 262 270 285 288 263 230 233 285 312 338 354 0 12 33 44 39 36 36 34 31 31 36 45 54 58 60 67 76 83 91 96 98 100 99 98 98
313 307 303 297 283 265 252 243 235 229 228 229 230 230 231 231 228 224 221 220 220 221 223 227 231 231 226 223 221 221 221 224 227 230 234 237 239 240 242 242 242 244 249 253 249 245 246 251 252 253 260 272 268 239 218 225 252 274 315 349 359 16 43 48 39 35 35 35 34 35 39 47 54 55 55 60 70 81 89 94 96 98 98 97 97
312 309 303 295 286 275 263 252 242 237 235 234 234 235 235 237 237 232 227 225 224 225 227 230 232 229 224 220 219 219 220 223 226 229 233 236 239 242 243 241 238 239 243 244 240 236 237 240 240 241 250 260 254 229 213 214 228 243 261 315 351 22 78 57 37 34 34 35 34 34 37 43 51 55 56 58 65 76 85 90 93 95 96 97 96
312 308 301 294 286 276 266 254 246 243 242 240 244 246 243 239 237 237 236 235 234 233 233 234 234 230 224 221 220 221 222 224 225 228 232 235 238 242 242 236 233 235 239 240 235 231 231 232 230 231 239 247 242 224 211 210 218 224 227 249 291 176 158 120 44 35 35 35 32 31 33 34 38 48 56 58 63 74 82 88 91 93 94 95 95
318 305 297 293 286 277 269 260 253 248 245 244 249 252 249 244 240 239 240 240 239 237 237 236 235 234 230 226 225 225 224 224 225 228 231 233 238 240 237 229 227 231 235 235 231 227 225 224 222 222 227 234 232 222 212 209 213 216 214 220 221 192 179 170 88 49 44 38 32 30 30 30 30 41 57 64 71 81 87 90 92 94 96 98 98
326 309 297 292 288 283 279 272 263 257 253 250 249 249 249 250 249 247 243 240 238 238 238 236 235 236 237 234 232 229 226 225 227 229 230 233 237 238 231 223 222 226 228 228 226 222 219 217 216 215 217 221 225 221 213 209 211 212 209 210 214 198 187 181 155 82 62 46 32 29 28 27 30 43 69 82 88 94 97 97 98 101 103 104 104
332 322 307 296 289 285 284 281 275 270 265 259 255 253 252 251 249 247 244 240 238 237 235 232 230 232 235 236 236 233 229 226 227 229 229 231 234 234 227 221 221 223 224 223 222 218 215 213 212 211 212 217 223 221 214 209 209 209 207 205 205 198 192 192 186 139 84 101 70 39 28 21 26 44 86 104 104 105 106 105 106 108 109 109 109
337 333 322 309 301 296 293 289 285 281 277 271 265 261 257 251 247 245 243 241 238 236 234 230 228 229 231 232 234 234 231 228 227 228 228 228 230 229 224 221 220 221 221 221 220 217 214 212 210 209 210 214 220 220 214 208 206 207 206 204 202 198 198 200 201 196 165 206 192 169 66 25 29 54 99 116 115 113 112 111 111 113 114 114 113
345 342 334 322 316 314 311 305 297 290 287 280 271 266 262 255 250 247 245 242 239 236 234 231 230 229 228 227 226 229 233 235 233 230 227 226 226 224 221 219 218 219 219 220 220 218 215 213 212 211 210 212 216 219 213 206 203 204 204 202 201 202 203 204 204 206 214 209 193 186 174 53 58 86 114 128 130 126 123 122 121 121 121 120 117
358 355 347 337 332 330 326 322 316 307 299 289 279 272 266 258 253 249 245 241 238 237 235 232 230 228 226 224 222 224 233 239 238 232 227 225 224 223 219 218 217 217 217 218 219 218 217 216 214 212 210 210 213 216 212 205 202 202 202 200 200 203 206 205 204 203 203 194 189 186 181 117 86 100 116 132 139 137 135 134 133 131 128 125 122
Height
799 800 801 802 803 804 805 807 808 809 810 811 812 813 814 814 815 816 816 817 817 817 817 817 817 817 817 816 816 815 815 814 813 813 812 811 811 810 809 809 808 808 808 807 807 806 806 805 805 804 804 804 803 803 802 802 801 800 800 799 799 799 798 798 795 789 786 787 786 784 784 783 781 781 780 777 776 776 775 773 772 771 771 770 768
798 801 801 802 802 803 805 806 807 808 809 810 811 812 813 813 814 814 815 815 816 816 816 816 816 816 815 815 815 814 813 813 812 811 810 810 809 809 808 808 807 807 807 806 806 805 804 804 803 802 802 802 801 801 800 800 799 798 798 798 797 797 796 796 794 789 784 784 784 782 781 781 779 778 777 775 773 773 772 771 770 769 768 767 766
798 800 801 801 802 803 804 805 806 807 808 809 810 811 811 812 813 813 814 814 815 815 815 815 815 814 814 814 814 813 812 811 811 810 809 809 808 808 807 807 807 806 805 805 804 804 803 802 801 800 800 799 799 799 798 797 797 796 795 795 794 794 794 793 791 788 784 781 781 780 778 778 776 774 774 773 771 770 769 768 767 766 765 764 763
796 797 799 800 801 802 803 804 806 806 807 808 808 809 810 810 811 812 813 813 814 814 814 814 814 813 813 813 812 812 811 810 809 809 808 808 807 807 806 806 805 805 804 804 803 802 801 800 799 798 798 797 796 796 796 795 795 794 793 793 792 791 791 790 789 787 783 780 778 778 777 775 773 772 770 769 768 767 766 765 764 763 762 761 760
794 797 798 799 800 801 802 804 805 806 806 807 807 808 808 809 810 811 811 812 812 813 813 813 812 812 812 811 811 811 810 809 808 808 807 807 806 806 805 805 804 804 803 802 801 800 799 798 797 797 796 795 795 794 794 793 793 792 791 790 790 789 788 788 786 785 783 779 776 775 774 772 770 769 768 767 765 763 763 762 761 760 759 758 757
790 794 796 797 798 800 801 802 803 804 805 806 806 806 806 807 808 809 810 811 811 811 812 812 811 811 811 810 810 809 809 808 807 807 806 806 805 805 804 804 803 802 801 800 799 798 797 796 795 795 794 793 793 792 792 791 791 790 789 788 787 787 786 785 784 782 781 778 775 772 771 770 768 766 766 765 763 761 759 758 758 757 756 755 754
786 788 791 794 796 797 799 801 802 802 803 804 805 805 805 805 807 808 808 809 810 810 811 811 810 810 809 809 809 808 808 807 806 806 805 805 804 804 803 802 801 801 800 798 797 796 795 794 793 793 792 792 791 790 790 789 789 788 787 786 785 784 783 782 781 780 778 776 773 771 769 768 767 765 763 763 762 760 758 756 754 753 753 752 751
782 785 787 790 792 794 796 799 800 801 802 803 803 803 803 804 805 806 807 808 809 809 809 810 809 809 809 808 808 807 807 806 805 805 804 804 803 802 801 800 799 798 797 796 795 794 793 792 792 791 791 790 790 789 788 788 787 786 785 784 783 782 781 780 779 778 776 774 771 769 767 765 765 763 762 761 759 758 757 755 752 750 750 749 748
780 782 785 787 789 792 795 797 798 800 801 801 801 801 802 803 803 805 805 806 807 808 808 808 808 808 808 807 807 807 806 805 805 804 803 802 801 801 800 799 797 796 795 794 794 793 791 790 790 789 789 789 788 788 787 786 786 785 784 783 782 780 779 778 777 776 775 773 770 768 766 764 763 762 761 759 758 756 755 754 751 749 747 746 745
778 780 781 783 786 790 793 794 795 798 799 799 799 800 800 801 802 803 804 805 806 807 807 807 807 807 807 806 806 806 805 805 804 803 802 801 800 799 798 797 796 794 793 792 792 791 790 789 788 788 787 787 786 786 785 785 784 783 783 781 780 779 778 777 776 775 773 771 769 767 765 762 761 761 759 758 757 755 753 752 750 747 746 743 741
777 777 778 780 783 787 790 792 793 795 796 797 797 798 799 800 801 802 803 804 805 806 806 806 806 806 806 805 805 805 804 804 803 802 801 800 798 797 796 795 794 793 792 791 790 789 789 788 787 786 786 785 785 784 784 783 782 782 781 780 779 778 777 776 774 773 772 769 767 766 764 760 759 759 758 756 755 753 752 750 748 746 745 742 740
775 776 776 778 781 784 787 789 791 793 794 795 796 796 797 798 799 801 802 803 804 804 805 805 805 805 804 804 804 804 803 802 801 801 800 798 797 796 794 793 792 791 791 790 789 789 788 787 786 786 785 784 784 783 782 782 781 780 779 778 777 776 775 774 772 771 770 767 765 764 762 759 757 756 755 755 753 752 750 748 747 746 744 742 740
774 774 775 777 779 781 784 787 789 791 793 794 794 795 796 797 798 800 801 802 803 803 803 804 803 804 803 803 803 802 802 801 800 799 798 797 796 794 793 792 791 790 790 789 789 788 787 787 786 785 784 784 783 783 782 780 779 778 777 775 774 772 771 771 769 768 767 765 763 760 759 757 754 752 752 752 751 750 748 746 745 744 742 741 740
772 773 774 776 777 779 782 784 787 789 790 792 793 793 794 795 797 799 800 801 801 802 802 802 802 802 802 802 802 801 800 800 799 798 797 796 794 793 792 791 790 790 789 789 788 787 787 786 785 784 784 783 782 781 780 779 777 776 774 773 771 770 768 767 766 765 764 763 760 757 756 755 752 749 749 749 748 747 746 745 744 743 741 739 737
770 771 773 774 776 778 780 783 785 787 788 789 790 791 793 794 796 798 799 799 800 801 801 801 801 801 801 801 800 800 799 799 798 797 796 795 793 792 791 790 790 789 789 788 788 787 786 785 784 784 783 782 781 780 778 777 775 774 773 771 769 768 766 765 763 762 761 760 757 755 753 752 750 747 746 745 745 744 743 743 742 741 740 737 735
769 770 772 773 775 777 779 781 782 784 785 787 788 789 791 793 795 796 797 798 799 799 799 799 799 799 799 799 799 799 798 798 797 796 795 794 792 791 791 790 789 789 789 788 788 787 785 785 784 783 783 782 780 779 777 775 774 772 771 770 768 766 764 763 761 760 758 756 754 752 750 748 746 744 743 742 741 740 740 739 739 739 738 736 733
767 769 771 772 774 775 777 778 780 782 784 785 786 787 789 791 793 794 795 796 797 798 798 798 798 798 798 798 798 798 797 796 796 795 794 793 792 791 790 790 789 789 789 788 787 786 785 784 784 783 782 781 779 777 776 774 773 771 770 768 767 764 762 760 758 756 755 753 750 748 746 744 742 741 740 739 738 738 737 735 735 736 735 733 731
766 767 769 771 772 774 775 776 778 780 782 783 784 785 787 789 791 792 793 795 796 796 796 796 796 797 797 797 797 796 796 795 795 794 793 792 792 791 790 790 789 789 788 787 786 785 784 784 783 782 781 779 778 776 775 773 771 770 769 767 765 763 761 759 756 754 752 750 747 745 742 740 739 737 736 735 734 734 733 731 731 732 731 729 728
764 765 767 768 770 772 774 776 778 779 779 780 781 783 785 788 789 791 792 793 794 794 795 795 795 795 795 795 795 795 795 794 793 793 792 791 791 791 790 790 789 788 787 786 785 784 784 783 782 781 780 779 777 775 774 772 770 769 768 766 764 762 759 757 755 752 750 748 746 743 740 738 737 735 734 732 731 730 729 727 728 728 726 726 726
762 764 765 766 768 770 772 773 775 775 776 778 779 782 784 786 788 789 790 792 792 793 793 793 793 793 793 793 793 793 793 793 792 792 791 791 791 790 790 789 788 787 786 785 784 783 783 782 781 780 779 777 776 774 773 772 770 769 767 766 764 762 759 756 754 752 750 747 744 742 739 737 735 733 731 729 728 727 726 724 724 723 722 722 722
762 763 764 765 766 767 768 769 771 773 775 776 778 780 783 784 786 787 788 789 790 791 791 791 791 791 791 791 792 792 792 791 791 791 790 790 789 789 789 788 787 786 785 784 784 783 782 782 780 779 778 776 775 774 773 772 770 769 767 766 764 762 759 756 754 751 749 746 744 741 739 736 734 731 729 727 725 724 723 721 720 719 719 718 717
762 762 763 763 764 765 765 768 771 772 773 775 777 779 781 782 784 785 786 787 788 789 789 789 789 789 789 789 790 790 790 790 790 790 789 789 788 788 788 787 786 785 785 784 784 783 782 781 780 779 777 776 775 774 773 771 770 769 767 766 764 761 758 756 754 751 749 746 744 741 739 736 733 730 728 725 723 721 720 718 716 716 715 714 714
762 762 762 762 763 762 763 765 768 770 771 773 775 777 779 780 782 783 784 785 786 787 787 787 787 787 787 788 788 789 789 789 789 788 788 788 787 787 786 786 785 784 784 784 783 782 781 780 779 778 777 776 775 774 773 771 770 768 767 765 763 760 758 755 753 751 748 746 744 741 739 736 733 730 727 725 722 720 717 715 714 712 711 711 711
762 762 761 761 761 761 762 763 765 766 769 771 774 775 777 779 780 781 782 783 783 784 784 785 785 785 785 786 786 787 787 787 787 787 787 786 786 786 785 784 784 783 783 783 782 782 781 780 779 778 777 776 775 774 773 771 770 768 766 764 762 760 757 755 752 750 748 746 744 741 739 736 734 730 727 724 721 719 716 714 713 711 710 709 709
761 760 760 760 760 760 761 762 763 765 767 769 771 773 775 776 778 778 779 780 781 781 782 782 783 783 783 784 784 785 785 785 786 786 785 785 785 785 784 783 783 783 783 782 782 781 780 779 778 778 777 776 775 774 772 771 769 768 766 764 762 759 757 754 752 751 749 747 744 742 739 736 734 731 727 724 721 718 715 713 711 710 709 708 707
758 757 757 758 758 758 759 761 762 763 764 765 768 770 772 774 775 775 777 778 778 779 779 780 780 781 781 781 782 782 783 783 784 784 784 784 784 784 783 783 782 782 782 782 781 780 780 779 778 777 776 775 774 773 772 771 769 767 766 764 762 759 757 755 753 751 750 747 745 742 740 737 733 730 727 724 721 718 715 712 710 709 708 708 707
755 755 754 754 755 755 757 758 759 759 760 762 764 767 770 771 772 773 774 775 776 776 777 778 778 779 779 779 780 780 781 781 782 782 782 782 783 783 783 782 781 781 781 781 780 779 779 778 777 776 775 775 774 773 771 770 769 767 765 764 762 760 758 756 754 752 750 748 745 743 740 737 734 730 727 724 721 718 715 713 711 709 708 708 706
752 752 751 751 751 752 753 754 754 755 757 759 760 763 766 768 769 770 770 771 773 773 774 775 776 776 777 777 778 778 778 779 779 780 780 781 781 781 781 781 780 780 779 779 779 778 778 777 777 776 775 774 773 772 771 769 768 767 765 764 762 760 758 757 755 752 750 748 746 743 740 737 734 731 728 725 722 719 716 714 712 710 709 708 707
749 749 748 748 748 749 750 750 751 752 754 755 757 760 763 764 766 767 768 769 770 771 772 773 773 774 775 775 776 776 776 776 777 778 778 779 779 780 780 780 779 778 778 778 777 777 777 776 775 774 773 772 772 771 770 769 768 767 765 764 762 760 759 756 754 752 750 748 746 743 740 738 735 732 729 727 724 721 718 716 714 712 711 710 709
746 745 745 745 745 745 747 747 748 750 751 753 755 758 760 762 763 764 766 766 767 769 770 771 772 773 773 773 774 774 774 775 775 776 776 777 778 778 778 779 778 777 777 776 776 776 776 775 774 774 773 772 771 770 769 768 767 766 765 764 762 760 759 757 755 753 751 749 747 744 742 739 736 733 731 729 726 724 721 719 717 715 714 712 711
743 742 742 741 741 742 743 743 745 747 748 750 753 755 757 759 761 762 763 764 766 767 768 769 770 771 771 772 772 773 773 773 774 774 775 776 776 777 777 777 777 777 776 776 775 775 775 775 774 773 773 772 771 771 770 769 768 766 765 764 762 761 759 757 755 753 751 749 747 745 743 740 738 735 733 731 729 726 724 722 720 718 717 716 715
740 739 738 738 738 739 739 740 742 745 746 748 750 752 754 756 759 760 761 762 764 765 766 767 768 769 770 770 771 771 771 772 773 773 774 775 775 775 776 776 776 776 776 775 775 775 774 774 774 773 773 772 771 771 770 769 768 767 765 764 763 761 759 758 756 754 752 750 748 746 744 742 740 738 735 733 731 729 726 724 723 722 721 720 719
738 736 737 737 737 738 739 740 741 741 742 744 747 749 751 753 755 757 758 760 762 763 764 765 766 767 768 769 769 770 770 771 771 772 773 774 774 775 775 775 776 775 775 775 774 774 774 774 774 773 772 772 771 770 770 769 768 767 765 764 763 762 760 759 757 755 753 752 750 748 746 744 742 739 737 735 733 731 729 728 726 725 724 723 722
736 734 735 735 736 737 739 740 740 739 740 741 743 745 747 749 751 753 755 757 759 761 762 763 764 765 766 767 768 768 769 770 771 771 772 773 773 774 774 775 775 775 774 774 774 774 774 774 773 773 772 771 771 770 769 769 768 767 766 765 764 763 761 760 758 756 755 753 751 750 748 746 744 742 739 737 735 734 732 731 729 728 727 727 726
734 732 732 733 733 733 734 736 737 738 738 739 740 742 743 745 748 750 752 754 756 757 758 760 761 762 764 765 766 767 768 769 769 770 771 771 772 773 773 774 774 774 774 773 773 773 773 773 772 772 772 771 770 770 769 768 768 767 766 765 764 763 762 760 759 757 756 754 753 751 749 748 746 744 742 740 738 737 735 734 733 732 731 730 729
732 731 730 730 730 730 731 733 735 736 736 736 738 739 741 743 745 747 749 751 752 753 755 757 758 760 762 763 764 765 766 767 768 769 769 770 770 771 772 772 772 773 772 772 772 772 772 772 771 771 771 770 770 769 768 768 767 767 766 765 764 763 762 761 759 758 757 755 754 753 751 749 748 746 744 743 741 740 739 738 737 736 734 733 733
730 729 728 728 728 729 729 730 732 734 735 735 736 737 739 741 743 745 747 748 750 751 753 754 756 758 760 761 762 763 764 766 767 768 768 769 769 769 770 770 771 771 771 771 771 771 771 771 771 770 770 770 769 769 768 767 767 767 766 766 765 764 763 762 760 759 758 757 755 754 753 751 750 748 747 745 744 743 742 741 740 738 737 736 735
729 728 727 727 727 727 727 728 730 732 734 735 735 736 737 738 741 742 744 746 747 749 750 752 753 755 756 757 758 761 763 764 765 766 766 766 767 767 768 768 769 769 769 770 770 770 770 770 770 770 770 769 769 768 768 767 767 767 767 766 765 764 763 762 761 760 759 758 757 755 754 753 752 750 749 748 746 746 744 743 742 741 740 739 738
727 726 726 725 725 725 726 726 727 728 730 732 734 735 736 737 738 740 741 743 745 746 747 749 750 751 752 753 756 758 760 761 762 762 763 764 764 765 766 766 767 767 768 768 768 768 768 769 769 769 769 769 768 768 767 767 767 767 767 766 765 765 764 763 762 761 760 759 758 757 756 755 753 752 751 750 749 748 747 746 745 744 743 743 742
726 725 724 724 724 724 724 725 725 726 727 729 732 733 734 734 735 736 738 740 741 743 744 745 746 747 749 750 752 754 756 757 758 758 760 761 761 762 763 764 765 765 766 766 767 767 767 767 768 768 768 768 768 767 767 767 767 767 767 766 765 765 764 763 763 762 761 760 759 758 757 756 755 754 753 752 751 750 749 748 748 747 746 746 746
724 723 723 722 722 723 723 724 724 725 726 727 729 730 731 732 732 733 735 736 738 739 741 742 743 744 746 747 749 750 752 753 754 755 757 758 759 760 760 761 762 763 764 765 765 766 766 766 767 767 767 767 767 767 767 767 767 767 766 766 765 765 764 764 763 762 761 761 759 758 758 757 756 755 754 754 753 752 751 751 750 750 749 749 748
723 722 721 721 721 722 722 722 722 723 725 726 727 728 729 730 730 731 732 733 734 736 737 738 739 741 743 745 746 748 749 750 751 753 754 755 756 757 758 759 760 761 762 763 763 764 764 765 765 766 766 766 766 766 766 766 766 766 766 766 766 765 765 764 764 763 762 761 760 759 759 758 757 756 756 755 755 754 753 752 752 751 751 751 751
722 721 720 720 720 720 720 720 721 722 723 724 725 726 727 729 729 730 730 730 731 733 734 735 736 738 740 742 744 745 747 748 749 750 751 752 753 754 755 757 758 759 760 761 762 762 763 763 764 764 765 765 765 765 765 765 766 766 766 766 765 765 765 765 764 764 763 762 761 760 760 759 758 758 757 757 756 755 754 754 754 753 753 753 752
721 720 720 719 719 719 719 719 720 721 721 722 723 724 726 727 728 728 729 729 729 730 731 732 734 735 737 739 741 742 744 745 746 747 748 750 751 752 753 754 756 757 758 759 760 760 761 761 762 763 763 764 764 764 764 765 765 765 765 765 765 765 765 765 765 764 764 763 762 762 761 760 760 759 758 758 757 756 756 755 755 754 754 754 754
721 720 720 719 719 719 718 719 719 720 720 721 721 722 724 725 725 726 727 728 728 729 729 730 732 733 735 736 738 739 740 742 743 744 746 747 748 749 751 752 754 755 756 757 757 758 759 760 761 761 762 763 763 763 763 764 764 765 765 765 765 765 765 765 765 765 764 763 763 762 762 761 761 760 759 759 758 758 757 757 756 756 756 755 755
720 719 719 719 718 718 718 718 718 719 719 719 719 720 722 722 722 723 724 725 727 727 728 729 730 731 732 734 735 736 737 739 740 741 743 744 745 747 748 750 751 753 754 754 755 756 757 758 759 760 761 761 762 762 763 763 764 764 764 765 765 765 765 765 765 765 764 764 764 763 763 762 762 761 760 760 759 759 759 758 758 758 757 757 757
719 718 718 718 718 717 717 717 717 717 717 717 717 718 719 719 720 721 721 722 724 725 726 727 727 728 729 731 732 733 734 736 737 739 740 742 743 744 746 747 749 750 751 752 753 754 755 756 757 758 759 760 761 761 762 763 763 764 764 764 764 764 765 765 765 765 765 764 764 764 763 763 763 762 762 761 761 760 760 760 760 760 760 760 760
718 717 717 717 717 716 716 716 716 715 715 714 715 715 716 716 717 718 719 720 721 722 723 724 724 725 726 728 729 731 732 733 734 736 738 739 741 742 744 745 746 748 749 750 751 752 753 754 755 756 758 758 759 760 761 762 763 763 763 764 764 764 764 765 765 765 765 765 764 764 764 764 763 763 763 762 762 762 762 762 762 762 762 762 762
717 717 716 716 716 715 715 715 714 714 713 713 713 713 713 713 714 715 716 717 717 718 719 720 721 722 723 725 726 728 730 731 732 734 735 737 738 740 741 743 745 746 746 747 748 750 751 752 754 755 756 757 758 759 759 760 762 762 763 763 763 764 764 764 765 765 765 765 765 765 764 764 764 763 763 763 763 763 763 763 763 764 764 764 764
717 716 716 715 715 715 714 714 713 712 712 712 711 711 710 711 712 712 713 714 714 714 715 717 718 719 720 721 723 725 727 728 730 731 733 734 736 737 739 741 742 743 744 745 746 748 749 750 751 753 754 755 756 757 758 759 760 761 762 763 763 763 764 764 764 765 765 765 765 765 765 764 764 764 764 764 764 764 765 765 765 765 765 765 766
716 715 715 715 714 713 713 712 711 711 710 710 709 709 709 709 709 709 710 710 710 710 711 713 714 715 717 718 720 722 724 725 727 728 730 732 733 735 736 738 739 741 742 743 744 746 747 748 749 751 752 753 754 755 757 758 759 760 761 762 762 763 763 763 764 764 765 765 765 765 765 765 764 764 764 765 765 766 766 766 766 766 767 767 767